Location: Bukit Jayong
(2.7333°N, 113.7500°E)
Time: 03:29:40
(UTC+00:00)

Daily predictions for brighter satellites

Satellite Brightness Start Highest point End
(mag) Time Altitude Azimuth Time Altitude Azimuth Time Altitude Azimuth
Cosmos 1867 3.5 10:28:52 10° NNW 10:34:17 75° ENE 10:39:39 10° SSE
NOSS 2-3 (E) 3.5 10:30:54 10° SSW 10:35:30 66° ESE 10:39:29 10° NNE
Cosmos 1939 Rocket 3.9 10:31:54 10° S 10:35:38 49° W 10:39:21 10° NNW
Cosmos 2219 4.2 10:32:05 10° NNE 10:36:22 22° ENE 10:40:41 10° SE
Intelsat 5-1 Rocket 1.7 10:34:33 10° W 10:36:50 49° SSW 10:40:17 10° SE
USA 229 DEB 4.2 10:31:48 10° S 10:37:16 32° ESE 10:42:42 10° NE
USA 229 4.2 10:31:55 10° S 10:37:22 32° ESE 10:42:47 10° NE
ARGOS 4.2 10:33:52 10° SE 10:38:05 24° ENE 10:42:16 10° NNE
Radarsat Rocket 4.0 10:34:26 10° SSE 10:40:16 87° WSW 10:46:17 10° NNW
CZ-2D R/B 3.1 10:38:35 10° SSE 10:42:22 73° E 10:46:10 10° N
H-2A R/B 4.1 10:40:57 10° ESE 10:43:48 17° ENE 10:46:39 10° NE
CZ-4B R/B 2.7 10:44:22 10° NE 10:46:57 21° E 10:49:33 10° SSE
Cosmos 1934 Rocket 4.1 10:41:08 10° SSE 10:47:11 51° E 10:53:05 10° NNE
NATO 3D Rocket 4.0 10:43:58 10° W 10:48:31 49° NNW 10:53:44 11° NE
ERBS 3.8 10:45:36 10° NW 10:48:39 37° WSW 10:51:41 10° S
Cosmos 2297 Rocket 2.4 10:43:30 10° N 10:48:52 46° ENE 10:54:15 10° SSE
GPS 2-12 Rocket1 3.1 10:44:32 10° WSW 10:49:22 83° SSE 10:53:25 14° ENE
OAO 3 Rocket 3.2 10:46:21 10° SW 10:51:09 75° SE 10:55:26 13° ENE
CZ-3B R/B -0.3 10:49:01 10° WSW 10:51:23 75° NNW 10:52:16 23° NE
deb Chang Zheng 4 3.5 10:51:40 10° S 10:55:53 83° WSW 11:00:04 10° NNW
Ariane H10+ 3.8 10:45:42 10° WSW 10:57:10 38° SSW 11:01:26 10° SE
Aurora 2 Rocket 4.4 10:49:05 10° WNW 10:59:49 72° NNE 11:07:17 15° ESE
NOSS 3-1 (A) 3.0 10:55:25 10° S 11:00:19 52° ESE 11:05:09 10° NE
Maqsat-B 3.2 11:00:13 10° WNW 11:03:29 48° N 11:06:59 19° ENE
CZ-4 R/B 4.5 11:00:12 10° SSE 11:04:16 55° ENE 11:08:18 10° N
Cosmos 1892 Rocket 4.4 11:00:53 10° NNE 11:04:39 28° E 11:08:24 10° SE
SJ-11-01 4.3 11:00:16 10° SSE 11:04:48 52° ENE 11:09:19 10° N
Cosmos 371 Rocket 3.3 11:00:02 10° SSW 11:04:50 89° W 11:09:40 10° NNE
YAOGAN 3 4.5 11:04:22 10° SSE 11:08:42 73° ENE 11:13:02 10° N
SL-16 R/B 2.2 11:05:18 10° SSW 11:10:58 87° WNW 11:16:38 10° NNE
Meteor 1-4 Rocket 3.3 11:08:59 10° SSE 11:12:11 31° E 11:12:11 31° E
BREEZE-M DEB (TANK) 4.5 11:12:58 10° W 11:14:54 19° SW 11:17:41 10° S
Cosmos 2227 Rocket 2.2 11:09:43 10° N 11:15:15 59° ENE 11:20:47 10° SSE
USA 267 3.3 11:10:49 10° SE 11:17:15 60° NE 11:23:40 10° NNW
Okean O Rocket 1.9 11:16:04 10° S 11:20:23 66° WSW 11:24:41 10° NNW
ARIANE 5 R/B 4.3 11:16:48 10° WSW 11:20:50 44° SSE 11:26:59 21° ESE
ARIANE 44L R/B 2.0 11:19:27 10° W 11:21:43 82° S 11:23:06 38° E
Cosmos 2333 Rocket 4.1 11:19:08 10° SE 11:19:55 12° SE 11:19:55 12° SE
Iridium 4 Rocket 3.4 11:20:12 10° NNE 11:24:59 59° E 11:30:16 10° S
Cosmos 494 Rocket 4.2 11:20:38 10° N 11:25:30 43° ENE 11:30:20 10° SSE
Ariane H10-3 1.9 11:24:12 10° W 11:26:29 81° S 11:27:17 50° E
Timation 1 Rocket 4.3 11:20:37 10° NNW 11:26:34 89° W 11:32:32 10° SSE
YAOGAN 1 2.6 11:24:24 10° SSE 11:28:35 51° ENE 11:32:46 10° N
Cosmos 2322 Rocket 2.2 11:23:37 10° SSW 11:29:14 81° WNW 11:34:50 10° NNE
CZ-4 R/B 3.4 11:28:49 10° SSE 11:36:23 10° N 11:36:24 10° N
Spot 2 3.7 11:28:37 10° SSE 11:32:43 83° E 11:36:44 10° N
H-2A R/B 3.7 11:31:51 10° SSW 11:36:27 34° WSW 11:41:09 10° NW
deb Ariane 4.0 11:31:09 10° W 11:39:17 50° N 11:39:47 46° NNE
PSLV R/B 3.9 11:38:12 31° N 11:40:04 77° WNW 11:44:07 10° SSW
Cosmos 2360 Rocket 2.0 11:39:11 10° S 11:44:47 75° ESE 11:46:23 47° NNE
Cosmos 1605 Rocket 4.1 11:40:08 10° S 11:46:14 73° W 11:52:23 10° N
Meteor 1-21 Rocket 4.4 11:40:50 10° N 11:46:44 77° W 11:52:39 10° S
Delta 202 4.3 11:38:04 10° WNW 11:47:02 58° NNE 11:48:35 48° ENE
Cosmos 2219 Rocket 4.4 11:42:59 10° SSE 11:43:10 11° SSE 11:43:10 11° SSE
Feng Yun 1-1 Rocket 4.3 11:43:59 10° S 11:49:20 72° WSW 11:54:45 10° NNW
Geosat 3.8 11:51:03 74° ESE 11:51:03 74° ESE 11:56:03 10° SSW
ATLAS 2A CENTAUR R/B 4.3 11:49:23 10° NNW 11:49:53 11° NNW 11:49:53 11° NNW
